Header for Extended Forecast Station List Page

Search by: ID | Name | Date | Parm | Value | Avg | % Avg
Sort by: ID | Name | Date | Parm | Value | Avg | % Avg

Enter search or view all records.

Click on id for station plot
#IDNameDateParmValueAvg% Avg
0LWRI1LITTLE WOOD-LITTLE WOOD DAM07-06-2020INFLOW (KAF)61736
1HWRI1BIG LOST-AT HOWELL RANCH NEAR CHILLY07-06-2020DISCHARGE (KAF)275748
2MAGI1BIG WOOD-MAGIC DAM07-06-2020INFLOW (KAF)183749
3CHDW1CHELAN-LAKE CHELAN DAM07-06-2020INFLOW (KAF)18934355
4CLUW1CLE ELUM-CLE ELUM LAKE07-06-2020INFLOW (KAF)519355
5ARAI1SF BOISE-ANDERSON RANCH DAM07-06-2020INFLOW (KAF)539258
6ARDW1ENTIAT-NEAR ARDENVOIR07-06-2020DISCHARGE (KAF)315162
7DEDI1DEADWOOD-NEAR LOWMAN07-06-2020INFLOW (KAF)162662
8HALI1BIG WOOD-AT HAILEY07-06-2020DISCHARGE (KAF)497664
9PESW1WENATCHEE-AT PESHASTIN07-06-2020DISCHARGE (KAF)26540166
10BUDW1BUMPING-BUMPING LAKE DAM07-06-2020INFLOW (KAF)182767
11BIGI1BOISE-AT GLENWOOD BRIDGE07-06-2020DISCHARGE (KAF)12818271
12PARW1YAKIMA-NEAR PARKER07-06-2020DISCHARGE (KAF)9413072
13PATW1METHOW-NEAR PATEROS07-06-2020DISCHARGE (KAF)14519375
14NACW1NACHES-NEAR NACHES07-06-2020DISCHARGE (KAF)11615475
15DWRI1NF CLEARWATER-DWORSHAK DAM07-06-2020INFLOW (KAF)33343676
16PARI1BOISE-NEAR PARMA07-06-2020DISCHARGE (KAF)17322278
17TNAW1TEANAWAY-BELOW FORKS07-06-2020DISCHARGE (KAF)7979
18CLFW1NACHES-NEAR CLIFFDEL07-06-2020DISCHARGE (KAF)8110081
19JLKW4SNAKE-JACKSON LAKE AT DAM07-06-2020INFLOW (KAF)18722982
20MACI1BIG LOST-MACKAY RESERVOIR NEAR MACKAY07-06-2020INFLOW (KAF)364483
21PITW1KLICKITAT-NEAR PITT07-06-2020DISCHARGE (KAF)17420385
22KADW1KACHESS-KACHESS DAM07-06-2020INFLOW (KAF)141786
23UNDW1WHITE SALMON-NEAR UNDERWOOD07-06-2020DISCHARGE (KAF)14316587
24FCFM8NF FLATHEAD-NEAR COLUMBIA FALLS07-06-2020DISCHARGE (KAF)39044188
25EASW1YAKIMA-AT EASTON07-06-2020DISCHARGE (KAF)667588
26KIOW1YAKIMA-AT KIONA07-06-2020DISCHARGE (KAF)38944188
27HODO3HOOD-NEAR TUCKER BRIDGE07-06-2020DISCHARGE (KAF)819288
28SATI1ST MARIES-NEAR SANTA07-06-2020DISCHARGE (KAF)171989
29IPDI1HENRYS FORK-ISLAND PARK DAM07-06-2020INFLOW (KAF)13715190
30ALPW4SNAKE-NEAR ALPINE07-06-2020DISCHARGE (KAF)1047116790
31ORFI1CLEARWATER-AT OROFINO07-06-2020DISCHARGE (KAF)60767490
32JKSW4SNAKE-NEAR JACKSON07-06-2020DISCHARGE (KAF)87296291
33PLDI1SF SNAKE-PALISADES DAM07-06-2020INFLOW (KAF)1446158091
34PIHI1PORTNEUF-AT POCATELLO07-06-2020DISCHARGE (KAF)232591
35EMMI1PAYETTE-NEAR EMMETT07-06-2020DISCHARGE (KAF)40543693
36KEDW1YAKIMA-KEECHELUS LAKE07-06-2020INFLOW (KAF)242594
37RILW1TIETON-RIMROCK LAKE NEAR RIMROCK07-06-2020INFLOW (KAF)747994
38LYDM8KOOTENAI-LIBBY DAM07-06-2020INFLOW (KAF)2323243895
39MODO3DESCHUTES-AT MOODY NR BIGGS07-06-2020DISCHARGE (KAF)1044109495
40KERM8FLATHEAD-KERR DAM07-06-2020INFLOW (KAF)1715178796
41HEII1SNAKE-NEAR HEISE07-06-2020DISCHARGE (KAF)1879195996
42WSRI1WEISER-NEAR WEISER07-06-2020DISCHARGE (KAF)545696
43LEOI1KOOTENAI-AT LEONIA07-06-2020DISCHARGE (KAF)2571264597
44LLKW1SPOKANE-AT LONGLAKE07-06-2020INFLOW (KAF)59461597
45UMTW1YAKIMA-AT UMTANUM07-06-2020DISCHARGE (KAF)59161097
46PDTO3UMATILLA-AT PENDLETON07-06-2020DISCHARGE (KAF)121297
47LAUW1KETTLE-AT LAURIER07-06-2020DISCHARGE (KAF)23323798
48MYKO3MCKAY CREEK-NEAR PILOT ROCK07-06-2020DISCHARGE (KAF)0098
49HHWM8SF FLATHEAD-HUNGRY HORSE DAM07-06-2020INFLOW (KAF)34935499
50STRM8ST. REGIS-NEAR ST. REGIS07-06-2020DISCHARGE (KAF)373799
51GIBO3UMATILLA-NEAR GIBBON07-06-2020DISCHARGE (KAF)121299
52SIFI1SNAKE-AB EAGLE ROCK NR IDAHO FALLS07-06-2020DISCHARGE (KAF)13221316100
53CFMM8FLATHEAD-AT COLUMBIA FALLS07-06-2020DISCHARGE (KAF)15171496101
54BITM8BITTERROOT-NEAR MISSOULA07-06-2020DISCHARGE (KAF)302299101
55PRWW1COLUMBIA-PRIEST RAPIDS DAM07-06-2020INFLOW (KAF)2584125631101
56CHEI1FALL RIVER-NEAR CHESTER07-06-2020DISCHARGE (KAF)7877101
57GCDW1COLUMBIA-GRAND COULEE DAM07-06-2020INFLOW (KAF)2524024626102
58WHBI1SALMON-AT WHITEBIRD07-06-2020DISCHARGE (KAF)15841559102
59SERO3JOHN DAY-AT SERVICE CK07-06-2020DISCHARGE (KAF)6867102
60COEI1COEUR D ALENE-COEUR D ALENE LAKE07-06-2020INFLOW (KAF)253247103
61WANW1COLUMBIA-WANAPUM DAM07-06-2020INFLOW (KAF)2584225161103
62ALFW1PEND OREILLE-ALBENI FALLS DAM07-06-2020INFLOW (KAF)40383900104
63ANTI1HENRYS FORK-AT ST. ANTHONY07-06-2020DISCHARGE (KAF)328314105
64TEAI1TETON-NEAR ST. ANTHONY07-06-2020DISCHARGE (KAF)197188105
65HOTI1BRUNEAU-NEAR HOT SPRINGS07-06-2020DISCHARGE (KAF)2826105
66NOXM8CLARK FORK-NOXON RAPIDS DAM07-06-2020INFLOW (KAF)35993395106
67MCDW1COLUMBIA-MCNARY DAM07-06-2020INFLOW (KAF)3482832945106
68MONO3NF JOHN DAY-AT MONUMENT07-06-2020DISCHARGE (KAF)4643106
69JDAO3COLUMBIA-JOHN DAY DAM07-06-2020INFLOW (KAF)3530933458106
70BONM8BLACKFOOT-NEAR BONNER07-06-2020DISCHARGE (KAF)240224107
71SRGM8CLARK FORK-AT ST REGIS07-06-2020DISCHARGE (KAF)10771004107
72BONO3COLUMBIA-BONNEVILLE DAM07-06-2020INFLOW (KAF)3607833711107
73CHJW1COLUMBIA-CHIEF JOSEPH DAM07-06-2020INFLOW (KAF)2408722402108
74WELW1COLUMBIA-WELLS DAM07-06-2020INFLOW (KAF)2471622970108
75RRHW1COLUMBIA-ROCKY REACH DAM07-06-2020INFLOW (KAF)2546523521108
76CABI1CLARK FORK-CABINET GORGE DAM07-06-2020INFLOW (KAF)39753640109
77AFRI1SNAKE-AMERICAN FALLS RESERVOIR07-06-2020INFLOW (KAF)13221209109
78TDAO3COLUMBIA-THE DALLES DAM07-06-2020INFLOW (KAF)3569732689109
79REXI1HENRYS FORK-AT REXBURG07-06-2020DISCHARGE (KAF)400362110
80OWYO3OWYHEE-OWYHEE DAM07-06-2020INFLOW (KAF)5751111
81CSDI1NF PAYETTE-CASCADE DAM07-06-2020INFLOW (KAF)7668112
82WGCM8MF FLATHEAD-NEAR WEST GLACIER07-06-2020DISCHARGE (KAF)438384114
83BELM8CLARK FORK-BELOW MISSOULA07-06-2020DISCHARGE (KAF)884767115
84TONW1OKANOGAN-NEAR TONASKET07-06-2020DISCHARGE (KAF)453393115
85SHYI1SNAKE-NEAR SHELLEY07-06-2020DISCHARGE (KAF)11851022116
86TCHW1WALLA WALLA-NEAR TOUCHET07-06-2020DISCHARGE (KAF)108116
87BERO3MALHEUR-AGENCY VALLEY DAM07-06-2020INFLOW (KAF)87122
88PRTI1PRIEST-NEAR PRIEST RIVER07-06-2020DISCHARGE (KAF)203164124
89ANAW1SNAKE-NEAR ANATONE07-06-2020DISCHARGE (KAF)61534972124
90SNAI1SNAKE-AT BLACKFOOT07-06-2020DISCHARGE (KAF)743590126
91ABOM8CLARK FORK-ABOVE MISSOULA07-06-2020DISCHARGE (KAF)583457127
92WEII1SNAKE-AT WEISER07-06-2020DISCHARGE (KAF)37492955127
93RCCM8ROCK CREEK-NEAR CLINTON07-06-2020DISCHARGE (KAF)11085129
94BRNI1SNAKE-BROWNLEE DAM07-06-2020INFLOW (KAF)38883006129
95TRYO3GRANDE RONDE-TROY07-06-2020DISCHARGE (KAF)316241131
96LGSW1SNAKE-LITTLE GOOSE DAM07-06-2020INFLOW (KAF)83916338132
97LMNW1SNAKE-LOWER MONUMENTAL DAM07-06-2020INFLOW (KAF)84036371132
98BFTI1SNAKE-NEAR BLACKFOOT07-06-2020DISCHARGE (KAF)738555133
99LGDW1SNAKE-LOWER GRANITE DAM07-06-2020INFLOW (KAF)84086313133
100SWAI1SNAKE-BELOW SWAN FALLS07-06-2020DISCHARGE (KAF)26812004134
101IHDW1SNAKE-ICE HARBOR DAM07-06-2020INFLOW (KAF)84256283134
102RIDI1WILLOW CREEK-RIRIE DAM07-06-2020INFLOW (KAF)85149
103WRMO3MALHEUR-WARM SPRINGS DAM07-06-2020INFLOW (KAF)43151
104SPDI1CLEARWATER-AT SPALDING07-06-2020DISCHARGE (KAF)22561268178
105DLGM8CLARK FORK-AT DEER LODGE07-06-2020DISCHARGE (KAF)8743203
106UMAO3UMATILLA-NEAR UMATILLA07-06-2020DISCHARGE (KAF)347463
107MILI1SNAKE-AT MILNER07-06-2020DISCHARGE (KAF)1037112929
108BFEI1KOOTENAI-AT BONNERS FERRY07-06-2020STAGE (FT)MMM
109DRMM8CLARK FORK-NR DRUMMOND07-06-2020DISCHARGE (KAF)204MM
110HOPI1PEND OREILLE-PEND OREILLE LAKE NR HOPE07-06-2020LAKE ELEVATION (FT)MMM
111SPOW1SPOKANE-AT SPOKANE07-06-2020DISCHARGE (KAF)413MM
112SJMI1ST JOE-AT ST MARIES07-06-2020STAGE (FT)MMM
113CIBW1COLUMBIA-AT INTL BOUNDARY07-06-2020DISCHARGE (KAF)24312MM
114LUCI1BOISE-LUCKY PEAK DAM07-06-2020INFLOW (KAF)446MM
115BULO3BULLY CREEK-BULLY CREEK DAM07-06-2020INFLOW (KAF)M0M